Regional Weather Roundup
Issued by NWS Kansas City/Pleasant Hill, MO

Home | Current Version | Previous Version | Graphics & Text | Print | Product List | Glossary Off
Versions: 1 2 3 4 5 6 7 8 9 10 11 12 13 14 15 16 17 18 19 20 21 22 23 24 25 26 27 28 29 30 31 32 33 34 35 36 37 38 39 40 41 42 43 44 45 46 47 48 49 50

000
ASUS43 KEAX 181510
RWREAX

WEATHER ROUNDUP FOR EASTERN KANSAS AND NORTHWEST MISSOURI
NATIONAL WEATHER SERVICE KANSAS CITY/PLEASANT HILL MO
900 AM CST WED JAN 18 2017

KSZ040-057-103>105-MOZ028-029-037-043-181600-
...KANSAS CITY METROPOLITAN AREA...

CITY           SKY/WX    TMP DP  RH WIND       PRES   REMARKS
K.C. INTL      MOSUNNY   31  29  92 S7        30.13S FOG     WCI  24
K.C. DOWNTOWN  CLOUDY    32  31  96 S7        30.17R FOG     WCI  26
LEES SUMMIT    FOG       32  32 100 S10       30.17R VSB 1/4 WCI  24
OLATHE - IXD   FOG       30  30 100 S12       30.16R VSB 1/4 WCI  20
OLATHE - OJC   FOG       29  29 100 S10       30.16R VSB 1/4 WCI  20
LAWRENCE       MOSUNNY   31  31 100 E8        30.15R FOG     WCI  23

$$

MOZ001>008-011>017-020>025-030>033-038>040-044>046-053-054-181600-
...NORTHERN AND CENTRAL MISSOURI...

CITY           SKY/WX    TMP DP  RH WIND       PRES   REMARKS
ST. JOSEPH     SUNNY     32  30  92 SE3       30.14S
MOSBY          FOG       32  32 100 SE7       30.17F VSB 1/4 WCI  26
WARRENSBURG    CLOUDY    36  36 100 S10       30.19S FOG     WCI  28
WHITEMAN AFB   CLOUDY    36  36 100 S9        30.18S FOG     WCI  29
CLINTON        CLOUDY    36  36 100 S8        30.21S FOG     WCI  29
SEDALIA        CLOUDY    37  36  96 S9        30.21R FOG     WCI  30
WARSAW         NOT AVBL
CHILLICOTHE      N/A     32  32 100 S10       30.19R WCI  24
KIRKSVILLE     CLOUDY    34  34 100 S8        30.17R FOG     WCI  27

$$

MOZ041-047>049-056>058-063>065-088>090-097-181600-
...EASTERN AND SOUTHERN MISSOURI...

CITY           SKY/WX    TMP DP  RH WIND       PRES   REMARKS
ST. LOUIS INTL CLOUDY    40  31  70 SW6       30.25R
SPIRIT OF STL  CLOUDY    38  33  82 CALM      30.25R
COLUMBIA       CLOUDY    36  33  89 S10       30.22R WCI  28
JEFFERSON CITY CLOUDY    37  32  82 SE3       30.23S
ROLLA          CLOUDY    35  33  92 VRB3      30.20F
OSAGE BEACH    CLOUDY    37  34  89 S7        30.23S WCI  32
SPRINGFIELD    CLOUDY    37  35  92 SE7       30.18F FOG     WCI  32
BRANSON        FOG       36  36 100 CALM      30.19F VSB 1/8
JOPLIN         CLOUDY    36  36 100 E7        30.18F FOG     WCI  30
WEST PLAINS    FOG       36  35  96 E6        30.22S VSB 3/4 WCI  31

$$

IAZ060-094-KSZ022-034>040-054-083-096-NEZ052-066-093-181600-
...KANSAS...SOUTHEAST NEBRASKA AND IOWA...

CITY           SKY/WX    TMP DP  RH WIND       PRES   REMARKS
TOPEKA         SUNNY     32  29  88 E5        30.13R WCI  27
MANHATTAN      SUNNY     29  26  89 CALM      30.10R
EMPORIA        CLOUDY    32  32 100 S13       30.13R FOG     WCI  22
CHANUTE        CLOUDY    33  32  96 SE8       30.17R FOG     WCI  26
WICHITA        CLOUDY    36  34  92 S6        30.11S WCI  31
OMAHA          CLOUDY    30  26  85 SE9       30.04S WCI  22
LINCOLN        SUNNY     31  29  92 S7        30.04S WCI  24
FALLS CITY     SUNNY     30  28  92 SE6       30.09S WCI  24
LAMONI         FOG       29  28  96 S7        30.11R VSB 1/4 WCI  22
DES MOINES     FOG       31  30  96 S10       30.10R VSB 1/4 WCI  22

$$




USA.gov is the U.S. government's official web portal to all federal, state and local government web resources and services.